Location: Most
(50.5133°N, 13.6207°E)
Time: 20:24:19
(UTC+02:00)

ISS - Pass Details

Date: 24 September 2024
Orbit: 412 x 424 km, 51.6° (Epoch: 09 October)

Event Time Altitude Azimuth Distance (km) Brightness Sun altitude
Rises 20:40:23 0° 286° (WNW) 2,367 1.9 -16.8°
Reaches altitude 10° 20:42:29 10° 283° (WNW) 1,503 0.3 -17.1°
Maximum altitude 20:45:49 62° 202° (SSW) 477 -3.6 -17.6°
Enters shadow 20:46:28 49° 149° (SSE) 552 -3.5 -17.7°
